This demonstration page uses our WeatherBlox Daily Observations layout. Learn more.

Left ArrowRight Arrow

Hourly Observations for March 31, 2021

Temp ( °F °C ) Dew Point ( °F °C ) Humidity (%) Winds ( mph kmh ) Pressure ( in mb ) Visibility ( mi km ) Precip ( " mm )
12:53 am 00:53 Cloudy with Light Rain 64 17.8 59 15 84 84 ESE 3 6 30.15 1021 7 11 0.03 0.76
1:53 am 01:53 Cloudy 63 17.2 60 15.6 90 90 Calm 30.12 1020 10 16 0.02 0.51
2:53 am 02:53 Cloudy with Light Rain 62 16.7 60 15.6 93 93 Calm 30.09 1019 10 16 0.00 0.00
3:12 am 03:12 Cloudy 64 17.8 61 16.1 90 90 S 6 9 30.09 1019 10 16 0.00 0.00
3:53 am 03:53 Mostly Cloudy 64 17.8 61 16.1 90 90 SSE 7 11 30.06 1018 10 16 0.00 0.00
4:53 am 04:53 Cloudy 64 17.8 61 16.1 90 90 S 6 9 30.06 1018 10 16 0.00 0.00
5:36 am 05:36 Cloudy 65 18.3 61 16.1 87 87 SSW 7 11 30.05 1018 10 16 0.00 0.00
5:43 am 05:43 Cloudy 65 18.3 61 16.1 87 87 SSW 6 9 30.05 1018 10 16 0.00 0.00
5:53 am 05:53 Cloudy 65 18.3 61 16.1 87 87 SSW 7 11 30.05 1018 10 16 0.00 0.00
6:53 am 06:53 Cloudy 65 18.3 61 16.1 87 87 SSW 6 9 30.06 1018 10 16 0.00 0.00
7:05 am 07:05 Cloudy 65 18.3 61 16.1 87 87 S 7 11 30.06 1018 10 16 0.00 0.00
7:53 am 07:53 Cloudy 66 18.9 61 16.1 84 84 S 8 13 30.05 1018 10 16 0.00 0.00
8:53 am 08:53 Cloudy 66 18.9 62 16.7 87 87 SSW 9 15 30.06 1018 9 14 0.00 0.00
9:26 am 09:26 Cloudy with Light Rain 66 18.9 63 17.2 90 90 SW 8 13 30.06 1018 5 8 0.02 0.51
9:34 am 09:34 Cloudy with Rain 66 18.9 64 17.8 93 93 NW 14 22 30.08 1019 5 8 0.04 1.02
9:46 am 09:46 Cloudy with Rain 64 17.8 61 16.1 90 90 WNW 12 19 30.10 1019 3 5 0.07 1.78
9:48 am 09:48 Cloudy with Heavy Rain 64 18 61 16 88 88 W 7 11 30.09 1019 2 3 0.09 2.29
9:53 am 09:53 Cloudy with Heavy Rain 64 17.8 61 16.1 90 90 W 14 22 30.10 1019 1 2 0.15 3.81
10:42 am 10:42 Cloudy with Light Rain 63 17.2 60 15.6 90 90 SSE 5 7 30.07 1018 10 16 0.32 8.13
10:53 am 10:53 Cloudy with Light Rain 63 17.2 60 15.6 90 90 SE 5 7 30.06 1018 10 16 0.32 8.13
11:08 am 11:08 Cloudy 64 17.8 61 16.1 90 90 Calm 30.07 1018 10 16 0.00 0.00
11:53 am 11:53 Cloudy with Light Rain 64 17.8 62 16.7 93 93 E 3 6 30.05 1018 10 16 0.00 0.00
12:35 pm 12:35 Cloudy with Heavy Rain 63 17.2 61 16.1 93 93 NNW 14 22 30.08 1019 3 4 0.04 1.02
12:41 pm 12:41 Cloudy with Heavy Rain 62 16.7 61 16.1 96 96 N 7 11 30.07 1018 1 1 0.09 2.29
12:53 pm 12:53 Cloudy with Heavy Rain 62 16.7 61 16.1 96 96 NNE 7 11 30.06 1018 1 2 0.24 6.10
1:01 pm 13:01 Cloudy with Heavy Rain 62 16.7 61 16.1 96 96 ENE 7 11 30.06 1018 2 2 0.12 3.05
1:23 pm 13:23 Cloudy with Rain 62 16.7 61 16.1 96 96 E 9 15 30.04 1017 3 5 0.44 11.18
1:53 pm 13:53 Cloudy with Light Rain 63 17.2 60 15.6 90 90 E 3 6 30.04 1017 8 13 0.60 15.24
2:23 pm 14:23 Cloudy 64 17.8 61 16.1 90 90 N 3 6 30.05 1017 10 16 0.00 0.00
2:53 pm 14:53 Cloudy with Rain 63 17.2 61 16.1 93 93 N 5 7 30.04 1017 3 5 0.04 1.02
3:53 pm 15:53 Cloudy with Rain 63 17.2 61 16.1 93 93 ESE 3 6 30.00 1016 6 10 0.12 3.05
4:36 pm 16:36 Cloudy with Rain 63 17.2 61 16.1 93 93 SSW 6 9 30.02 1016 3 5 0.09 2.29
4:53 pm 16:53 Cloudy with Rain 63 17.2 61 16.1 93 93 ESE 7 11 29.97 1015 4 6 0.13 3.30
5:15 pm 17:15 Cloudy with Nearby Thunderstorms 63 17.2 62 16.7 97 97 VRB 3 6 29.97 1015 9 14 0.04 1.02
5:36 pm 17:36 Partly Cloudy 63 17.2 60 15.6 90 90 N 3 6 29.97 1015 10 16 0.05 1.27
5:53 pm 17:53 Sunny 62 16.7 61 16.1 96 96 Calm 29.96 1015 10 16 0.05 1.27
6:53 pm 18:53 Cloudy 62 16.7 61 16.1 96 96 WNW 5 7 29.99 1016 10 16 0.00 0.00
7:53 pm 19:53 Cloudy 62 16.7 60 15.6 93 93 WNW 6 9 30.01 1016 10 16 0.00 0.00
8:01 pm 20:01 Cloudy with Light Rain 61 16.1 59 15 93 93 NW 25 41 30.03 1017 5 8 0.00 0.00
8:11 pm 20:11 Cloudy with Light Rain 57 13.9 55 12.8 93 93 NW 18 30 30.05 1018 7 11 0.00 0.00
8:53 pm 20:53 Cloudy 52 11.1 49 9.4 89 89 NW 13 20 30.09 1019 10 16 0.00 0.00
9:21 pm 21:21 Cloudy 49 9.4 44 6.7 83 83 NNW 12 19 30.14 1021 10 16 0.00 0.00
9:29 pm 21:29 Cloudy 48 8.9 44 6.7 86 86 NNW 10 17 30.14 1021 10 16 0.00 0.00
9:53 pm 21:53 Cloudy 48 8.9 42 5.6 80 80 NNW 8 13 30.13 1020 10 16 0.00 0.00
10:21 pm 22:21 Cloudy 47 8.3 41 5 80 80 undefined N/A 30.17 1022 10 16 0.00 0.00
10:53 pm 22:53 Cloudy 47 8.3 40 4.4 77 77 NW 7 11 30.15 1021 10 16 0.00 0.00
11:53 pm 23:53 Cloudy 46 7.8 37 2.8 71 71 NW 10 17 30.16 1021 10 16 0.00 0.00

Powered by AerisWeather